Weather History for KLCG - October, 2012

Change the Weather History Date:

Sunday, October 21, 2012

  Actual Average (KOFK) Record (KOFK)
Temperature  
Mean Temperature 58 °F 49 °F  
Max Temperature 72 °F 61 °F 88 °F (1947)
Min Temperature 43 °F 37 °F 15 °F (1987)
Degree Days  
Heating Degree Days 8 16  
Month to date heating degree days 260  
Since 1 July heating degree days 402  
Cooling Degree Days 0 0  
Month to date cooling degree days 8  
Year to date cooling degree days 914  
Growing Degree Days 8 (Base 50)    
Moisture  
Dew Point 44 °F    
Average Humidity 67    
Maximum Humidity 97    
Minimum Humidity 33    
Precipitation  
Precipitation 0.00 in 0.06 in 1.32 in (1900)
Month to date precipitation 1.55  
Year to date precipitation 24.77  
Snow  
Snow 0.00 in 0.00 in - ()
Month to date snowfall 0.3  
Since 1 July snowfall 0.3  
Snow Depth -    
Sea Level Pressure  
Sea Level Pressure 29.75 in    
Wind  
Wind Speed 8 mph (NNW)    
Max Wind Speed 16 mph    
Max Gust Speed 23 mph    
Visibility 10 miles    
Events      
T = Trace of Precipitation, MM = Missing Value Source: NWS Daily Summary

Daily Weather History Graph

Daily Weather History Graph

Search for Another Location

Airport or City:

Trip Planner

Search our weather history database for the weather conditions in past years. The results will help you decide how hot, cold, wet, or windy it might be!

Date:

Astronomy

Oct. 21, 2012 Rise Set
Actual Time 7:48 AM CDT 6:35 PM CDT
Civil Twilight 7:19 AM CDT 7:04 PM CDT
Nautical Twilight 6:47 AM CDT 7:37 PM CDT
Astronomical Twilight 6:14 AM CDT 8:09 PM CDT
Moon 2:12 PM CDT (10/21) No Moon Set
Length of Visible Light 11h 44m
Length of Day
10h 47m
Waxing Crescent, 45% of the Moon is Illuminated
Oct 21
Waxing Crescent
Oct 21
First Quarter
Oct 29
Full
Nov 6
Last Quarter
Nov 13
New

Hourly Weather History & Observations

Time (CDT) Temp. Windchill Dew Point Humidity Pressure Visibility Wind Dir Wind Speed Gust Speed Precip Events Conditions
12:15 AM 50.9 °F - 42.4 °F 73% 29.70 in 10.0 mi SE 9.2 mph - N/A   Clear
12:35 AM 50.0 °F - 42.3 °F 75% 29.70 in 10.0 mi SSE 10.4 mph - N/A   Clear
12:55 AM 49.5 °F - 42.3 °F 76% 29.70 in 10.0 mi SSE 10.4 mph - N/A   Clear
1:15 AM 49.3 °F - 42.3 °F 77% 29.70 in 10.0 mi SSE 10.4 mph - N/A   Clear
1:35 AM 49.1 °F - 42.1 °F 77% 29.70 in 10.0 mi SSE 6.9 mph - N/A   Clear
1:55 AM 47.8 °F - 42.4 °F 82% 29.70 in 10.0 mi SSE 5.8 mph - N/A   Clear
2:15 AM 46.9 °F - 42.6 °F 85% 29.69 in 10.0 mi South 3.5 mph - N/A   Clear
2:35 AM 46.9 °F - 42.4 °F 84% 29.69 in 10.0 mi Calm Calm - N/A   Clear
2:55 AM 47.5 °F - 42.8 °F 84% 29.69 in 10.0 mi Calm Calm - N/A   Clear
3:15 AM 46.8 °F - 42.4 °F 85% 29.69 in 10.0 mi Calm Calm - N/A   Clear
3:35 AM 46.4 °F 43.5 °F 42.4 °F 86% 29.68 in 10.0 mi South 5.8 mph - N/A   Clear
3:55 AM 46.8 °F - 42.8 °F 86% 29.67 in 10.0 mi Calm Calm - N/A   Clear
4:15 AM 46.6 °F - 42.8 °F 87% 29.68 in 10.0 mi South 4.6 mph - N/A   Clear
4:35 AM 45.7 °F 41.0 °F 42.6 °F 89% 29.67 in 10.0 mi SSE 9.2 mph - N/A   Clear
4:55 AM 45.7 °F 40.6 °F 42.8 °F 90% 29.67 in 10.0 mi SSE 10.4 mph - N/A   Clear
5:15 AM 45.0 °F 41.2 °F 42.8 °F 92% 29.67 in 10.0 mi South 6.9 mph - N/A   Clear
5:35 AM 44.6 °F 41.4 °F 42.4 °F 92% 29.67 in 10.0 mi South 5.8 mph - N/A   Clear
5:55 AM 44.8 °F 41.0 °F 42.8 °F 93% 29.67 in 10.0 mi South 6.9 mph - N/A   Clear
6:15 AM 44.6 °F 41.4 °F 42.8 °F 93% 29.68 in 10.0 mi South 5.8 mph - N/A   Clear
6:35 AM 45.1 °F 40.3 °F 43.2 °F 93% 29.68 in 10.0 mi South 9.2 mph - N/A   Clear
6:55 AM 45.5 °F 39.6 °F 43.3 °F 92% 29.68 in 10.0 mi South 12.7 mph - N/A   Clear
7:15 AM 45.1 °F 39.5 °F 43.2 °F 93% 29.69 in 10.0 mi South 11.5 mph - N/A   Clear
7:35 AM 45.1 °F 39.1 °F 43.2 °F 93% 29.69 in 10.0 mi South 12.7 mph - N/A   Clear
7:55 AM 44.4 °F 40.0 °F 42.6 °F 93% 29.71 in 10.0 mi South 8.1 mph - N/A   Clear
8:15 AM 43.9 °F 38.3 °F 43.0 °F 97% 29.71 in 10.0 mi South 10.4 mph - N/A   Clear
8:35 AM 45.5 °F 41.3 °F 43.9 °F 94% 29.71 in 10.0 mi SSW 8.1 mph - N/A   Clear
8:55 AM 47.3 °F - 45.0 °F 92% 29.71 in 10.0 mi SSW 8.1 mph - N/A   Clear
9:15 AM 49.3 °F - 46.0 °F 89% 29.72 in 10.0 mi SSW 10.4 mph - N/A   Clear
9:35 AM 51.1 °F - 46.9 °F 86% 29.72 in 10.0 mi South 10.4 mph - N/A   Clear
9:55 AM 53.6 °F - 47.7 °F 80% 29.72 in 10.0 mi South 12.7 mph - N/A   Clear
10:15 AM 55.9 °F - 48.0 °F 75% 29.74 in 10.0 mi SSW 10.4 mph - N/A   Clear
10:35 AM 58.6 °F - 48.9 °F 70% 29.75 in 10.0 mi SW 8.1 mph - N/A   Clear
10:55 AM 60.6 °F - 48.2 °F 64% 29.74 in 10.0 mi SW 6.9 mph - N/A   Clear
11:15 AM 62.8 °F - 47.5 °F 57% 29.76 in 10.0 mi West 4.6 mph - N/A   Clear
11:35 AM 64.4 °F - 47.7 °F 55% 29.76 in 10.0 mi WSW 5.8 mph - N/A   Clear
12:15 PM 68.2 °F - 41.4 °F 38% 29.76 in 10.0 mi WNW 6.9 mph - N/A   Clear
12:35 PM 68.4 °F - 41.7 °F 38% 29.76 in 10.0 mi NNW 4.6 mph - N/A   Clear
12:55 PM 69.3 °F - 42.1 °F 37% 29.76 in 10.0 mi WNW 6.9 mph - N/A   Clear
1:15 PM 69.6 °F - 41.4 °F 36% 29.76 in 10.0 mi NW 4.6 mph - N/A   Clear
1:35 PM 70.2 °F - 41.7 °F 36% 29.76 in 10.0 mi Calm Calm - N/A   Clear
1:55 PM 70.9 °F - 41.4 °F 34% 29.76 in 10.0 mi NNW 3.5 mph - N/A   Clear
2:15 PM 71.6 °F - 41.9 °F 34% 29.76 in 10.0 mi NNW 3.5 mph - N/A   Clear
2:35 PM 71.6 °F - 41.7 °F 34% 29.76 in 10.0 mi North 5.8 mph - N/A   Clear
2:55 PM 72.3 °F - 42.1 °F 34% 29.75 in 10.0 mi North 5.8 mph - N/A   Clear
3:15 PM 72.1 °F - 41.5 °F 33% 29.75 in 10.0 mi North 3.5 mph - N/A   Clear
3:35 PM 72.7 °F - 41.7 °F 33% 29.75 in 10.0 mi NNE 5.8 mph - N/A   Clear
3:55 PM 72.5 °F - 41.7 °F 33% 29.75 in 10.0 mi NNE 6.9 mph - N/A   Clear
4:15 PM 72.5 °F - 42.1 °F 33% 29.75 in 10.0 mi NNE 6.9 mph - N/A   Clear
4:35 PM 72.0 °F - 41.9 °F 34% 29.76 in 10.0 mi NNE 8.1 mph - N/A   Clear
4:55 PM 72.0 °F - 42.3 °F 34% 29.76 in 10.0 mi North 6.9 mph - N/A   Clear
5:15 PM 71.8 °F - 42.1 °F 34% 29.76 in 10.0 mi North 8.1 mph - N/A   Clear
5:35 PM 70.7 °F - 42.8 °F 36% 29.76 in 10.0 mi North 8.1 mph - N/A   Clear
5:55 PM 68.0 °F - 43.7 °F 41% 29.76 in 10.0 mi North 10.4 mph - N/A   Clear
6:15 PM 65.5 °F - 43.9 °F 46% 29.77 in 10.0 mi North 8.1 mph - N/A   Clear
6:35 PM 63.0 °F - 44.8 °F 51% 29.78 in 10.0 mi North 6.9 mph - N/A   Clear
6:55 PM 61.3 °F - 44.6 °F 54% 29.79 in 10.0 mi North 6.9 mph - N/A   Clear
7:15 PM 58.5 °F - 44.8 °F 60% 29.80 in 10.0 mi North 4.6 mph - N/A   Scattered Clouds
7:35 PM 58.8 °F - 45.1 °F 60% 29.81 in 10.0 mi NNE 3.5 mph - N/A   Mostly Cloudy
7:55 PM 59.7 °F - 45.7 °F 60% 29.81 in 10.0 mi North 6.9 mph - N/A   Overcast
8:15 PM 58.1 °F - 46.0 °F 64% 29.81 in 10.0 mi North 3.5 mph - N/A   Mostly Cloudy
8:35 PM 57.2 °F - 45.5 °F 65% 29.81 in 10.0 mi North 4.6 mph - N/A   Scattered Clouds
8:55 PM 57.0 °F - 45.9 °F 66% 29.82 in 10.0 mi North 6.9 mph - N/A   Clear
9:15 PM 57.6 °F - 46.4 °F 66% 29.83 in 10.0 mi North 12.7 mph - N/A   Scattered Clouds
9:35 PM 57.2 °F - 46.8 °F 68% 29.83 in 10.0 mi North 12.7 mph 17.3 mph N/A   Scattered Clouds
9:55 PM 56.8 °F - 48.2 °F 73% 29.84 in 10.0 mi NNE 13.8 mph - N/A   Mostly Cloudy
10:15 PM 56.3 °F - 48.4 °F 75% 29.84 in 10.0 mi NNE 15.0 mph 21.9 mph N/A   Overcast
10:35 PM 55.8 °F - 48.2 °F 76% 29.85 in 10.0 mi North 16.1 mph 23.0 mph N/A   Overcast
10:55 PM 54.7 °F - 47.7 °F 77% 29.85 in 10.0 mi NNE 16.1 mph 20.7 mph N/A   Overcast
11:15 PM 53.2 °F - 47.7 °F 81% 29.86 in 10.0 mi NNE 12.7 mph - N/A   Mostly Cloudy
11:35 PM 52.7 °F - 48.2 °F 85% 29.86 in 10.0 mi North 11.5 mph - N/A   Mostly Cloudy
11:55 PM 51.8 °F - 47.7 °F 86% 29.86 in 10.0 mi NNE 12.7 mph 16.1 mph N/A   Overcast